Theta_e
318 318 318 319 318 319 319 320 320 319 320 320 320 318 317 317 317 319 310 316 318 335 346 339 335 339 343 339 341 340 327 321 322 323 326 334 331 337 342 336 337 338 336 337 340
318 317 317 318 318 318 319 319 319 319 319 319 319 319 318 317 317 311 326 323 327 341 337 326 324 332 330 333 337 334 327 323 329 331 329 333 333 335 335 334 334 336 338 339 340
318 318 317 317 318 318 318 319 318 318 318 318 318 320 319 320 313 315 334 329 335 343 335 326 324 322 316 325 332 332 328 329 332 334 334 330 330 334 333 330 333 335 335 337 338
317 317 317 318 318 318 318 318 318 317 318 318 317 320 319 320 306 326 333 333 338 335 329 324 320 315 313 314 330 326 329 330 333 334 331 328 331 329 333 334 339 341 338 337 336
317 316 316 316 317 318 317 317 317 316 317 317 318 320 320 311 310 335 337 344 333 329 323 319 316 314 312 318 328 325 325 326 331 335 333 333 330 329 333 339 341 340 337 336 336
316 316 316 316 316 317 316 316 315 315 316 317 318 321 315 304 325 330 333 329 325 323 319 319 315 317 314 319 326 329 326 324 329 331 334 329 328 332 337 338 338 336 335 335 336
316 316 315 316 316 316 315 315 314 315 315 317 319 321 312 308 330 327 332 326 324 322 317 319 318 316 317 318 326 325 319 320 324 329 329 333 326 326 340 339 336 334 334 335 338
316 315 316 315 315 315 314 314 315 316 316 318 322 320 307 324 333 325 326 323 322 321 320 320 320 319 318 324 322 320 318 315 323 327 331 331 319 329 336 336 335 333 333 335 340
315 316 316 315 314 314 313 314 321 321 319 321 323 321 310 325 322 323 323 317 317 318 318 318 318 317 319 316 317 318 313 312 318 327 329 329 321 330 340 337 337 335 334 336 339
316 316 315 314 313 313 312 314 323 324 324 326 323 315 317 314 322 322 325 321 317 314 313 312 313 312 315 314 308 313 313 311 315 324 329 325 323 331 336 337 336 338 337 338 338
316 316 315 314 312 311 315 320 314 317 319 311 312 311 314 317 323 321 322 320 316 312 307 309 307 305 310 315 317 317 314 311 316 327 326 323 323 330 336 336 335 336 338 337 339
316 315 314 313 311 312 317 313 312 313 306 311 311 312 315 316 310 318 322 314 309 304 309 305 304 310 315 316 315 315 311 311 312 322 323 312 314 321 333 333 337 337 335 336 338
316 314 313 312 312 314 316 313 317 315 306 306 310 310 311 314 310 313 318 316 309 306 306 304 307 313 315 314 312 315 312 310 310 312 316 316 318 324 328 333 335 337 338 339 338
315 314 313 311 310 319 315 317 318 316 301 301 305 308 311 312 306 316 319 317 312 306 307 306 312 312 314 312 313 309 315 311 309 308 308 319 304 318 326 329 332 336 336 339 339
315 313 311 308 317 316 316 318 317 312 290 303 305 313 310 307 308 309 318 314 310 307 308 306 310 311 310 313 315 311 315 313 310 308 308 310 308 316 325 322 325 334 337 340 343
313 312 310 313 318 317 318 318 313 300 289 300 303 303 304 308 307 309 310 314 315 311 310 310 315 315 314 315 315 314 312 311 310 309 301 310 308 311 317 319 324 329 333 338 339
311 309 311 316 315 320 320 314 300 295 302 298 299 303 304 304 305 306 305 306 305 303 303 306 308 307 309 310 314 311 308 300 300 299 299 308 306 313 319 322 324 327 330 333 338
308 308 313 318 319 320 317 307 294 297 299 303 301 301 300 303 303 303 303 303 304 305 305 299 297 305 305 307 308 308 308 301 295 297 300 306 304 309 321 325 327 325 327 332 336
307 321 321 318 321 318 311 301 298 299 301 300 301 298 299 301 301 302 302 301 302 304 301 301 297 303 304 306 306 308 304 309 303 306 301 304 312 318 320 322 324 321 323 326 335
322 319 316 317 319 315 308 296 300 302 302 302 297 300 297 299 299 300 300 301 301 303 306 303 297 301 302 305 306 307 310 302 303 297 296 301 306 308 313 315 319 318 318 323 328
318 312 316 318 317 313 303 300 301 304 303 301 299 298 299 298 300 298 296 300 302 302 305 305 303 299 303 301 302 304 304 306 306 304 299 298 303 313 313 315 315 315 317 320 324
315 308 317 318 309 310 303 301 298 302 305 303 303 301 299 298 298 298 297 299 303 302 300 303 303 299 299 301 302 303 303 305 301 301 304 304 304 315 314 316 316 315 316 317 321
313 311 318 316 303 301 303 301 302 300 301 301 300 302 302 299 296 298 299 301 303 302 301 302 301 295 296 300 301 300 302 304 305 306 303 300 304 313 313 314 316 315 317 317 318
312 305 309 310 310 303 301 299 298 302 301 302 301 302 301 299 302 299 298 299 303 302 302 302 301 297 295 297 301 298 297 300 303 301 303 303 304 305 309 310 313 316 317 318 319
312 304 306 303 303 304 303 301 298 297 301 302 300 300 300 298 299 298 299 300 301 301 302 303 297 299 297 297 297 296 296 296 299 302 301 307 305 306 308 310 313 316 318 317 317
310 308 309 305 303 303 299 299 297 298 299 298 299 299 301 299 300 298 300 301 300 301 302 302 297 298 294 295 295 295 297 298 298 301 305 307 301 309 311 311 311 312 314 316 316
318 314 310 298 301 301 300 299 299 300 300 302 301 301 299 300 303 304 304 303 303 302 298 298 298 296 293 294 294 291 297 298 300 303 307 304 307 309 309 310 311 312 312 312 313
Wind_Speed
15 15 15 15 14 13 12 11 11 11 10 10 9 6 7 7 8 10 10 1 6 14 12 14 12 11 9 8 5 4 6 5 5 1 9 14 8 2 1 9 1 5 5 22 23
15 15 15 15 15 14 13 12 11 11 10 9 8 6 5 5 11 14 5 6 6 16 19 18 16 15 9 9 5 7 3 7 5 2 12 14 10 8 8 10 4 9 21 23 22
14 14 15 15 15 16 15 13 11 10 10 8 6 7 3 8 8 4 14 13 13 17 15 13 13 13 9 7 7 4 2 5 8 10 12 12 9 3 8 6 10 15 23 25 23
15 15 15 15 16 16 16 14 12 10 10 8 5 6 3 7 1 6 13 15 15 19 15 13 15 12 9 10 7 7 2 3 7 10 6 9 11 6 4 2 7 14 24 26 24
16 16 15 15 15 16 16 15 13 10 9 8 4 3 7 8 2 9 14 16 19 16 18 16 14 10 10 7 9 7 4 3 6 10 8 11 9 5 6 6 11 19 24 24 22
16 16 17 16 15 16 16 16 14 11 8 8 5 4 8 7 3 12 14 16 16 18 16 12 9 6 5 8 12 7 5 1 7 9 12 7 6 11 10 9 16 21 23 21 20
17 16 17 17 17 17 16 16 15 12 8 7 7 7 6 7 2 11 13 11 13 13 15 11 8 9 7 9 5 6 8 5 7 9 7 10 9 6 16 11 17 21 21 20 18
17 17 17 17 17 17 17 16 14 11 9 8 9 7 2 2 8 11 9 9 8 6 9 8 7 6 11 4 8 11 9 11 8 10 7 9 9 10 17 13 17 19 19 18 17
16 18 17 17 16 16 16 17 6 8 10 10 9 8 9 5 10 11 11 10 10 8 5 7 7 7 9 13 12 10 12 6 9 11 8 8 9 12 19 14 15 17 18 17 17
16 17 16 16 16 13 14 11 7 15 9 7 5 8 7 9 11 11 6 11 11 11 10 11 9 10 11 12 14 16 8 7 9 11 9 11 10 13 13 13 12 16 16 17 17
16 15 15 15 14 12 8 6 8 8 8 6 5 5 13 11 13 13 12 9 12 15 11 15 11 15 17 16 8 11 9 10 6 14 9 10 10 12 12 13 13 13 16 18 18
16 14 14 15 13 9 6 4 6 7 4 5 5 6 3 7 13 14 14 11 12 15 12 11 15 14 12 7 9 12 12 12 9 7 7 5 8 4 14 11 12 14 14 14 18
15 13 12 14 13 5 3 6 7 4 7 7 4 4 8 11 14 18 19 7 14 13 16 14 12 11 13 13 13 13 13 10 10 7 5 6 11 12 6 7 6 11 14 16 17
14 13 11 13 5 1 2 5 7 6 7 8 10 7 8 7 7 17 19 9 8 14 13 10 9 17 15 15 15 14 4 4 8 9 9 13 2 9 11 11 7 7 8 12 12
15 12 11 6 5 4 6 8 1 6 6 4 9 7 6 11 19 10 9 8 12 10 11 8 14 17 15 13 11 5 9 10 8 10 3 15 12 10 10 10 5 10 9 10 14
16 12 7 6 4 4 7 4 6 9 6 6 3 9 13 12 4 11 11 8 3 12 14 8 2 10 11 9 12 5 10 8 8 10 11 11 12 9 6 7 5 4 1 9 14
15 9 6 4 5 8 8 6 8 3 4 4 4 10 12 12 11 9 8 9 8 13 13 10 10 5 2 12 11 13 16 11 12 10 9 11 9 10 7 7 7 10 7 4 7
16 4 7 4 7 7 6 9 1 2 5 2 1 7 10 10 5 6 10 11 6 8 14 12 14 4 1 6 9 18 18 9 12 13 12 6 8 8 8 9 13 11 10 10 9
11 5 1 5 2 5 8 2 6 5 4 3 8 11 10 8 5 5 5 6 6 8 4 9 8 6 4 3 7 19 13 7 7 6 10 13 12 12 7 11 13 14 14 14 15
5 4 5 7 3 7 3 5 4 6 5 3 5 7 12 8 9 5 2 5 3 7 5 3 9 1 4 3 3 7 2 10 9 13 14 12 14 11 6 9 12 15 15 15 16
6 5 6 4 6 3 3 6 5 6 4 5 2 5 5 7 4 4 3 6 5 4 3 2 6 9 7 4 3 7 9 10 9 6 14 10 9 6 9 8 11 12 14 15 15
5 3 6 3 1 2 5 3 1 5 4 4 4 6 5 3 5 4 6 6 6 5 2 5 5 6 9 7 1 3 5 10 10 13 10 8 10 8 9 8 9 11 13 15 16
2 4 5 7 2 7 7 10 9 6 7 4 4 6 2 4 5 6 7 5 4 4 3 3 2 8 9 10 6 3 1 3 8 9 15 12 12 8 10 9 9 11 12 13 15
4 2 4 6 3 5 4 4 5 5 8 5 4 2 5 5 4 10 11 5 7 8 4 5 1 7 4 9 5 7 3 2 9 12 11 9 18 11 11 9 8 10 12 13 14
3 4 5 4 6 6 1 1 4 3 3 4 4 3 2 4 10 7 8 10 6 3 1 4 2 1 4 4 2 1 3 3 7 5 10 17 18 12 11 10 9 7 10 11 12
3 2 2 4 3 2 3 4 5 7 3 7 7 5 1 4 5 9 9 3 2 3 2 2 4 4 4 1 3 7 5 7 5 4 4 20 10 12 10 11 10 10 8 10 12
2 0 6 3 4 3 4 4 6 5 5 5 5 7 10 8 8 8 6 5 5 1 3 4 6 8 8 2 4 9 13 11 7 5 7 12 13 12 13 10 9 8 9 9 10
Wind_Direction
342 339 336 333 333 333 334 336 333 332 331 329 328 328 312 300 268 227 240 106 161 172 219 155 174 173 184 194 234 247 245 87 8 291 129 155 145 150 87 135 165 140 173 141 147
338 336 332 330 329 327 329 331 330 327 326 327 326 320 305 278 257 248 192 143 177 179 178 173 169 171 189 207 203 261 314 39 359 23 155 161 148 130 151 140 123 135 116 143 155
337 335 333 329 327 325 325 326 327 324 319 320 322 314 291 253 262 157 146 167 169 191 177 182 167 188 189 201 189 170 53 87 51 84 127 139 124 106 157 167 174 161 149 154 159
335 335 331 330 327 324 323 322 320 320 312 309 306 308 241 236 263 61 148 158 171 194 179 180 182 192 199 198 180 216 189 12 107 132 127 159 125 143 179 39 184 168 157 156 164
334 332 327 327 324 320 318 317 315 312 304 295 280 284 233 216 325 101 146 151 168 181 181 182 189 198 195 189 185 228 160 145 139 147 137 128 155 142 175 96 130 152 158 162 166
332 328 325 323 322 318 317 313 306 296 287 276 248 200 240 219 15 135 151 159 170 184 183 194 204 208 186 192 211 177 220 179 162 157 149 148 157 172 127 151 139 156 162 166 169
328 327 324 323 321 318 317 312 298 281 260 251 224 233 244 62 46 146 157 169 165 186 176 191 216 213 176 178 194 196 220 165 189 167 159 158 164 172 129 155 149 164 166 168 171
328 326 325 323 319 319 320 312 294 264 224 217 217 223 93 41 146 160 158 149 171 168 189 161 220 234 241 62 202 216 226 185 146 169 138 190 136 141 145 163 158 170 170 172 176
326 324 323 323 320 323 324 317 341 173 166 177 208 246 121 142 170 158 177 164 168 161 160 178 210 227 179 206 190 203 196 183 142 184 136 200 123 149 164 167 164 176 175 179 179
325 325 322 323 321 325 317 298 84 140 160 194 270 234 166 178 146 159 162 154 162 162 158 188 201 204 210 206 193 185 186 177 143 172 157 194 105 152 164 171 173 177 179 184 183
327 322 320 321 321 321 289 192 197 176 210 315 86 322 134 106 142 170 159 175 169 185 181 191 201 204 190 211 310 175 194 148 122 147 182 190 144 150 173 180 179 185 189 188 187
322 322 322 319 318 312 248 281 31 349 244 206 243 263 202 184 139 158 181 171 175 186 170 174 221 194 183 179 207 202 176 134 113 148 230 121 119 108 169 189 190 188 193 195 186
324 325 322 315 310 221 289 37 333 247 254 147 177 208 164 195 160 163 192 191 192 181 195 197 192 166 194 188 201 203 200 159 156 148 182 169 119 126 132 138 159 187 192 204 187
329 329 323 315 273 105 180 347 310 222 236 131 175 145 168 204 147 156 196 195 186 199 195 225 149 183 195 194 213 186 236 190 172 209 181 149 182 72 140 129 142 169 185 191 199
334 332 322 293 340 235 23 330 251 223 183 143 131 119 165 208 132 164 184 234 197 178 202 170 176 191 195 195 211 212 157 209 206 227 194 182 219 95 91 102 121 165 174 207 191
331 329 309 214 227 351 312 306 224 231 99 141 164 172 176 161 108 144 189 227 322 170 223 133 172 201 202 183 210 120 175 172 211 227 223 176 246 85 74 31 60 75 72 197 193
325 322 218 302 358 328 296 225 227 348 175 106 116 195 153 142 122 171 180 169 200 187 187 161 169 128 268 192 198 206 184 170 193 206 229 145 226 63 81 70 46 30 17 323 272
321 184 178 288 305 289 238 233 7 99 31 109 167 188 142 139 112 149 172 146 75 283 183 180 169 192 332 281 190 208 206 200 188 195 178 149 164 112 80 68 61 37 19 7 306
318 191 220 12 286 255 249 328 24 17 4 345 177 171 139 123 131 134 85 85 44 349 280 203 102 124 58 16 287 183 233 320 274 226 200 136 89 118 103 66 53 35 17 15 351
263 240 49 346 259 245 265 76 81 12 337 257 177 295 160 134 155 146 136 42 62 27 305 98 133 76 99 217 135 297 221 209 237 183 216 153 171 92 78 45 45 30 20 17 24
246 244 42 29 245 254 51 68 72 40 344 348 89 122 95 130 143 113 65 88 19 29 353 276 256 132 194 347 17 176 208 235 280 277 217 157 123 89 83 41 55 42 33 28 34
292 248 23 294 214 31 73 38 295 20 17 68 45 62 87 107 101 109 106 35 352 326 43 23 306 159 96 127 63 322 346 270 234 199 258 291 101 99 98 69 63 56 48 43 44
317 4 38 280 100 97 118 96 52 35 35 29 56 36 54 111 117 110 116 47 36 29 18 4 220 164 167 173 178 216 99 275 265 271 230 245 118 127 110 91 64 65 59 57 53
276 214 91 65 43 73 121 78 114 50 56 52 63 99 141 112 95 145 130 86 61 77 17 269 142 307 329 42 47 172 176 299 273 243 235 238 127 139 125 110 85 69 52 56 58
338 65 342 105 79 85 83 59 97 97 72 18 84 49 113 141 130 130 134 138 102 121 65 315 193 256 65 66 27 318 229 221 256 315 274 122 129 142 130 118 102 76 84 70 50
322 221 140 98 128 192 154 91 107 117 349 72 95 98 160 102 330 154 147 175 95 118 54 316 164 201 171 307 265 249 226 222 211 204 188 107 111 134 125 134 119 98 80 64 49
73 152 289 168 147 238 63 101 120 136 76 79 88 113 97 68 53 64 43 58 73 294 127 234 163 206 210 215 223 236 210 204 164 217 199 178 139 158 149 136 113 96 75 60 44